Location: Hardenberg
(52.5670°N, 6.6170°E)
Time: 07:47:54
(UTC+02:00)

ISS - Pass Details

Date: 18 May 2021
Orbit: 417 x 422 km, 51.6° (Epoch: 12 June)

Event Time Altitude Azimuth Distance (km) Brightness Sun altitude
Rises 02:52:51 0° 281° (WNW) 2,373 0.0 -15.7°
Reaches altitude 10° 02:55:06 10° 271° (W) 1,507 -1.1 -15.5°
Enters shadow 02:55:46 14° 264° (W) 1,277 -1.6 -15.5°
